Apiliotis — SYVY — position and weather

sailwx.info

Track history (hours):
 
Tides and Currents Weather Stations Pressure Air Temp Water Temp Dewpoint Dewpoint Depression Visibility Wind Speed Wind Dir Waves Ship Positions

Apiliotis

Last reported at 2014-Oct-24 20:04 UTC. Time now 2014-Oct-25 12:05 UTC.
Position N 37°52' E 026°25'.

Length 79 m; draft 4.5 m.

Type: Ship. MMSI: 240438000.

Date/timePositionNaut miles runAvg speedWind from/ knotsBaromVisibWave heightAir tempDewpointWater temp
2014-Oct-24 20:04N 37°52' E 026°25'611.5
2014-Oct-24 19:31N 37°51' E 026°32'7 1.0
2014-Oct-24 12:30N 37°45' E 026°27'16 1.8
2014-Oct-24 03:33N 37°33' E 026°14'1010.6
2014-Oct-24 02:33N 37°28' E 026°02'1110.7
2014-Oct-24 01:33N 37°23' E 025°51'1110.9
2014-Oct-24 00:33N 37°18' E 025°39'1111.4
2014-Oct-23 23:33N 37°12' E 025°27'8 8.3
2014-Oct-23 22:33N 37°08' E 025°17'0 0.0
2014-Oct-23 21:33N 37°08' E 025°17'0 0.0
2014-Oct-23 20:33N 37°08' E 025°17'0 0.0
2014-Oct-23 19:33N 37°08' E 025°17'0 0.0
2014-Oct-23 18:33N 37°08' E 025°17'0 0.0
2014-Oct-23 17:33N 37°08' E 025°17'0 0.0
2014-Oct-23 16:33N 37°08' E 025°17'0 0.0
2014-Oct-23 15:33N 37°08' E 025°17'0 0.0
2014-Oct-23 14:33N 37°08' E 025°17'0 0.0
2014-Oct-23 13:33N 37°08' E 025°17'0 0.0
2014-Oct-23 12:33N 37°08' E 025°17'0 0.0
2014-Oct-23 11:33N 37°08' E 025°17'0 0.0
2014-Oct-23 10:33N 37°08' E 025°17'0 0.0
2014-Oct-23 09:33N 37°08' E 025°17'0 0.0
2014-Oct-23 08:33N 37°08' E 025°17'4 4.3
2014-Oct-23 07:33N 37°10' E 025°13'6 6.0
2014-Oct-23 06:33N 37°05' E 025°09'0 0.0
2014-Oct-23 05:26N 37°05' E 025°09'0 0.0
2014-Oct-23 04:32N 37°05' E 025°09'0 0.0
2014-Oct-23 03:32N 37°05' E 025°09'0 0.0
2014-Oct-23 02:32N 37°05' E 025°09'0 0.0
2014-Oct-23 01:31N 37°05' E 025°09'0 0.0
2014-Oct-23 00:32N 37°05' E 025°09'0 0.0
2014-Oct-22 23:33N 37°05' E 025°09'0 0.0
2014-Oct-22 22:33N 37°05' E 025°09'0 0.0
2014-Oct-22 21:30N 37°05' E 025°09'0 0.0
2014-Oct-22 20:32N 37°05' E 025°09'1 1.4
2014-Oct-22 19:31N 37°05' E 025°07'8 8.5
2014-Oct-22 18:33N 37°11' E 025°15'7 7.3
2014-Oct-22 17:33N 37°06' E 025°22'1 0.6
2014-Oct-22 16:33N 37°06' E 025°21'0 0.0
2014-Oct-22 15:33N 37°06' E 025°21'0 0.0
2014-Oct-22 14:33N 37°06' E 025°21'0 0.0
2014-Oct-22 13:33N 37°06' E 025°21'0 0.4
2014-Oct-22 12:33N 37°06' E 025°22'0 0.4
2014-Oct-22 11:33N 37°06' E 025°21'7 7.4
2014-Oct-22 10:33N 37°13' E 025°20'1110.8
2014-Oct-22 09:31N 37°24' E 025°17'3 3.3
2014-Oct-22 08:32N 37°27' E 025°19'1 0.6
2014-Oct-22 07:33N 37°28' E 025°19'3 3.2
2014-Oct-22 06:33N 37°29' E 025°16'6 6.3
2014-Oct-22 05:33N 37°32' E 025°09'0 0.0
2014-Oct-22 04:33N 37°32' E 025°09'0 0.0
2014-Oct-22 03:33N 37°32' E 025°09'0 0.0
2014-Oct-22 02:33N 37°32' E 025°09'0 0.0
2014-Oct-22 01:33N 37°32' E 025°09'0 0.0
2014-Oct-22 00:33N 37°32' E 025°09'0 0.0
2014-Oct-21 23:33N 37°32' E 025°09'0 0.0
2014-Oct-21 22:33N 37°32' E 025°09'0 0.0
2014-Oct-21 21:33N 37°32' E 025°09'6 5.9
2014-Oct-21 20:33N 37°34' E 025°02'1312.6
2014-Oct-21 19:33N 37°43' E 024°51'1110.9
2014-Oct-21 18:31N 37°53' E 024°44'0 0.1
2014-Oct-21 17:33N 37°53' E 024°44'2 0.4
2014-Oct-21 13:31N 37°52' E 024°43'3310.3
2014-Oct-21 10:19N 38°24' E 024°36'810.4
2014-Oct-21 09:32N 38°32' E 024°34'64 1.9
2014-Oct-20 00:29N 39°33' E 024°10'4212.4
2014-Oct-19 21:08N 39°51' E 024°59'3 0.2
2014-Oct-19 04:22N 39°53' E 025°02'94 2.3
2014-Oct-17 11:19N 38°27' E 025°49'8 0.5
2014-Oct-16 19:09N 38°18' E 025°49'712.1
2014-Oct-16 18:33N 38°17' E 025°40'1312.5
2014-Oct-16 17:33N 38°13' E 025°25'2512.5
2014-Oct-16 15:32N 38°05' E 024°54'1412.6
2014-Oct-16 14:27N 37°60' E 024°38'1112.4
2014-Oct-16 13:33N 37°52' E 024°29'2512.3
2014-Oct-16 11:33N 37°38' E 024°03'1212.2
2014-Oct-16 10:33N 37°39' E 023°48'1010.4
2014-Oct-16 09:33N 37°46' E 023°39'1111.1
2014-Oct-16 08:33N 37°51' E 023°26'1312.3
2014-Oct-16 07:30N 37°54' E 023°10'4 4.0
2014-Oct-16 06:34N 37°55' E 023°05'0 0.0
2014-Oct-16 05:33N 37°55' E 023°05'0 0.0
2014-Oct-16 04:33N 37°55' E 023°05'0 0.0
2014-Oct-16 03:33N 37°55' E 023°05'0 0.0
2014-Oct-16 02:34N 37°55' E 023°05'0 0.0
2014-Oct-16 01:34N 37°55' E 023°05'0 0.0
2014-Oct-16 00:33N 37°55' E 023°05'0 0.0
2014-Oct-15 23:33N 37°55' E 023°05'0 0.0
2014-Oct-15 22:30N 37°55' E 023°05'0 0.0
2014-Oct-15 21:34N 37°55' E 023°05'0 0.0
2014-Oct-15 20:33N 37°55' E 023°05'0 0.0
2014-Oct-15 19:33N 37°55' E 023°05'0 0.0
2014-Oct-15 18:33N 37°55' E 023°05'0 0.0
2014-Oct-15 17:34N 37°55' E 023°05'0 0.0
2014-Oct-15 16:33N 37°55' E 023°05'0 0.0
2014-Oct-15 15:33N 37°55' E 023°05'0 0.0
2014-Oct-15 14:33N 37°55' E 023°05'0 0.0
2014-Oct-15 13:33N 37°55' E 023°05'1 0.7
2014-Oct-15 12:31N 37°55' E 023°06'0 0.0
2014-Oct-15 08:30N 37°55' E 023°06'0 0.0
2014-Oct-15 07:30N 37°55' E 023°06'0 0.1
2014-Oct-15 06:33N 37°55' E 023°06'0 0.0
2014-Oct-15 05:33N 37°55' E 023°06'0 0.0
2014-Oct-15 04:33N 37°55' E 023°06'0 0.0
2014-Oct-15 03:20N 37°55' E 023°06'0 0.0
2014-Oct-15 02:33N 37°55' E 023°06'0 0.0
2014-Oct-14 22:21N 37°55' E 023°06'4 4.7
2014-Oct-14 21:33N 37°54' E 023°11'1111.4
2014-Oct-14 20:33N 37°58' E 023°25'  
Track history (hours):
 
Tides and Currents Weather Stations Pressure Air Temp Water Temp Dewpoint Dewpoint Depression Visibility Wind Speed Wind Dir Waves Ship Positions

Apiliotis

Last reported at 2014-Oct-24 20:04 UTC. Time now 2014-Oct-25 12:05 UTC.
Position N 37°52' E 026°25'.

Length 79 m; draft 4.5 m.

Type: Ship. MMSI: 240438000.

Date/timePositionNaut miles runAvg speedWind from/ knotsBaromVisibWave heightAir tempDewpointWater temp
2014-Oct-24 20:04N 37°52' E 026°25'611.5
2014-Oct-24 19:31N 37°51' E 026°32'7 1.0
2014-Oct-24 12:30N 37°45' E 026°27'16 1.8
2014-Oct-24 03:33N 37°33' E 026°14'1010.6
2014-Oct-24 02:33N 37°28' E 026°02'1110.7
2014-Oct-24 01:33N 37°23' E 025°51'1110.9
2014-Oct-24 00:33N 37°18' E 025°39'1111.4
2014-Oct-23 23:33N 37°12' E 025°27'8 8.3
2014-Oct-23 22:33N 37°08' E 025°17'0 0.0
2014-Oct-23 21:33N 37°08' E 025°17'0 0.0
2014-Oct-23 20:33N 37°08' E 025°17'0 0.0
2014-Oct-23 19:33N 37°08' E 025°17'0 0.0
2014-Oct-23 18:33N 37°08' E 025°17'0 0.0
2014-Oct-23 17:33N 37°08' E 025°17'0 0.0
2014-Oct-23 16:33N 37°08' E 025°17'0 0.0
2014-Oct-23 15:33N 37°08' E 025°17'0 0.0
2014-Oct-23 14:33N 37°08' E 025°17'0 0.0
2014-Oct-23 13:33N 37°08' E 025°17'0 0.0
2014-Oct-23 12:33N 37°08' E 025°17'0 0.0
2014-Oct-23 11:33N 37°08' E 025°17'0 0.0
2014-Oct-23 10:33N 37°08' E 025°17'0 0.0
2014-Oct-23 09:33N 37°08' E 025°17'0 0.0
2014-Oct-23 08:33N 37°08' E 025°17'4 4.3
2014-Oct-23 07:33N 37°10' E 025°13'6 6.0
2014-Oct-23 06:33N 37°05' E 025°09'0 0.0
2014-Oct-23 05:26N 37°05' E 025°09'0 0.0
2014-Oct-23 04:32N 37°05' E 025°09'0 0.0
2014-Oct-23 03:32N 37°05' E 025°09'0 0.0
2014-Oct-23 02:32N 37°05' E 025°09'0 0.0
2014-Oct-23 01:31N 37°05' E 025°09'0 0.0
2014-Oct-23 00:32N 37°05' E 025°09'0 0.0
2014-Oct-22 23:33N 37°05' E 025°09'0 0.0
2014-Oct-22 22:33N 37°05' E 025°09'0 0.0
2014-Oct-22 21:30N 37°05' E 025°09'0 0.0
2014-Oct-22 20:32N 37°05' E 025°09'1 1.4
2014-Oct-22 19:31N 37°05' E 025°07'8 8.5
2014-Oct-22 18:33N 37°11' E 025°15'7 7.3
2014-Oct-22 17:33N 37°06' E 025°22'1 0.6
2014-Oct-22 16:33N 37°06' E 025°21'0 0.0
2014-Oct-22 15:33N 37°06' E 025°21'0 0.0
2014-Oct-22 14:33N 37°06' E 025°21'0 0.0
2014-Oct-22 13:33N 37°06' E 025°21'0 0.4
2014-Oct-22 12:33N 37°06' E 025°22'0 0.4
2014-Oct-22 11:33N 37°06' E 025°21'7 7.4
2014-Oct-22 10:33N 37°13' E 025°20'1110.8
2014-Oct-22 09:31N 37°24' E 025°17'3 3.3
2014-Oct-22 08:32N 37°27' E 025°19'1 0.6
2014-Oct-22 07:33N 37°28' E 025°19'3 3.2
2014-Oct-22 06:33N 37°29' E 025°16'6 6.3
2014-Oct-22 05:33N 37°32' E 025°09'0 0.0
2014-Oct-22 04:33N 37°32' E 025°09'0 0.0
2014-Oct-22 03:33N 37°32' E 025°09'0 0.0
2014-Oct-22 02:33N 37°32' E 025°09'0 0.0
2014-Oct-22 01:33N 37°32' E 025°09'0 0.0
2014-Oct-22 00:33N 37°32' E 025°09'0 0.0
2014-Oct-21 23:33N 37°32' E 025°09'0 0.0
2014-Oct-21 22:33N 37°32' E 025°09'0 0.0
2014-Oct-21 21:33N 37°32' E 025°09'6 5.9
2014-Oct-21 20:33N 37°34' E 025°02'1312.6
2014-Oct-21 19:33N 37°43' E 024°51'1110.9
2014-Oct-21 18:31N 37°53' E 024°44'0 0.1
2014-Oct-21 17:33N 37°53' E 024°44'2 0.4
2014-Oct-21 13:31N 37°52' E 024°43'3310.3
2014-Oct-21 10:19N 38°24' E 024°36'810.4
2014-Oct-21 09:32N 38°32' E 024°34'64 1.9
2014-Oct-20 00:29N 39°33' E 024°10'4212.4
2014-Oct-19 21:08N 39°51' E 024°59'3 0.2
2014-Oct-19 04:22N 39°53' E 025°02'94 2.3
2014-Oct-17 11:19N 38°27' E 025°49'8 0.5
2014-Oct-16 19:09N 38°18' E 025°49'712.1
2014-Oct-16 18:33N 38°17' E 025°40'1312.5
2014-Oct-16 17:33N 38°13' E 025°25'2512.5
2014-Oct-16 15:32N 38°05' E 024°54'1412.6
2014-Oct-16 14:27N 37°60' E 024°38'1112.4
2014-Oct-16 13:33N 37°52' E 024°29'2512.3
2014-Oct-16 11:33N 37°38' E 024°03'1212.2
2014-Oct-16 10:33N 37°39' E 023°48'1010.4
2014-Oct-16 09:33N 37°46' E 023°39'1111.1
2014-Oct-16 08:33N 37°51' E 023°26'1312.3
2014-Oct-16 07:30N 37°54' E 023°10'4 4.0
2014-Oct-16 06:34N 37°55' E 023°05'0 0.0
2014-Oct-16 05:33N 37°55' E 023°05'0 0.0
2014-Oct-16 04:33N 37°55' E 023°05'0 0.0
2014-Oct-16 03:33N 37°55' E 023°05'0 0.0
2014-Oct-16 02:34N 37°55' E 023°05'0 0.0
2014-Oct-16 01:34N 37°55' E 023°05'0 0.0
2014-Oct-16 00:33N 37°55' E 023°05'0 0.0
2014-Oct-15 23:33N 37°55' E 023°05'0 0.0
2014-Oct-15 22:30N 37°55' E 023°05'0 0.0
2014-Oct-15 21:34N 37°55' E 023°05'0 0.0
2014-Oct-15 20:33N 37°55' E 023°05'0 0.0
2014-Oct-15 19:33N 37°55' E 023°05'0 0.0
2014-Oct-15 18:33N 37°55' E 023°05'0 0.0
2014-Oct-15 17:34N 37°55' E 023°05'0 0.0
2014-Oct-15 16:33N 37°55' E 023°05'0 0.0
2014-Oct-15 15:33N 37°55' E 023°05'0 0.0
2014-Oct-15 14:33N 37°55' E 023°05'0 0.0
2014-Oct-15 13:33N 37°55' E 023°05'1 0.7
2014-Oct-15 12:31N 37°55' E 023°06'0 0.0
2014-Oct-15 08:30N 37°55' E 023°06'0 0.0
2014-Oct-15 07:30N 37°55' E 023°06'0 0.1
2014-Oct-15 06:33N 37°55' E 023°06'0 0.0
2014-Oct-15 05:33N 37°55' E 023°06'0 0.0
2014-Oct-15 04:33N 37°55' E 023°06'0 0.0
2014-Oct-15 03:20N 37°55' E 023°06'0 0.0
2014-Oct-15 02:33N 37°55' E 023°06'0 0.0
2014-Oct-14 22:21N 37°55' E 023°06'4 4.7
2014-Oct-14 21:33N 37°54' E 023°11'1111.4
2014-Oct-14 20:33N 37°58' E 023°25'  

Dump ship's entire track history